Location: Newark
(42.8481°N, 0.4872°E)
Time: 22:21:45
(UTC+00:00)

Transit 2A - Visible Passes

Search period start: 18 June 2021 00:00
Search period end: 28 June 2021 00:00
Orbit: 600 x 958 km, 66.7° (Epoch: 18 June)

Date Brightness Start Highest point End Pass type
(mag) Time Alt. Az. Time Alt. Az. Time Alt. Az.
18 Jun 8.4 00:09:15 10° N 00:12:39 18° NE 00:16:15 10° E visible
18 Jun 5.9 01:51:18 10° NNW 01:56:17 78° WSW 02:00:52 15° SSE visible
18 Jun 8.6 23:35:41 10° N 23:38:11 14° NE 23:40:48 10° ENE visible
19 Jun 6.1 01:17:07 10° NNW 01:22:05 74° ENE 01:25:58 20° SE visible
19 Jun 7.6 03:01:47 10° WNW 03:04:48 16° WSW 03:06:21 14° SW visible
19 Jun 8.8 23:02:57 10° NNE 23:03:39 10° NE 23:04:22 10° NE visible
20 Jun 6.7 00:43:02 10° NNW 00:47:52 51° NE 00:51:26 20° SE visible
20 Jun 7.2 02:26:47 10° WNW 02:30:47 23° WSW 02:31:50 22° SW visible
21 Jun 7.2 00:09:01 10° NNW 00:13:35 36° NE 00:17:09 17° ESE visible
21 Jun 6.7 01:52:09 10° NW 01:56:43 34° WSW 01:57:34 32° SW visible
21 Jun 7.7 23:35:05 10° N 23:39:16 27° NE 23:43:02 13° E visible
22 Jun 6.2 01:17:44 10° NW 01:22:36 49° WSW 01:23:29 45° SW visible
22 Jun 8.1 23:01:16 10° N 23:04:53 20° NE 23:08:43 10° E visible
23 Jun 5.9 00:43:26 10° NW 00:48:28 72° WSW 00:49:30 56° S visible
23 Jun 8.4 22:27:37 10° N 22:30:26 15° NE 22:33:22 10° ENE visible
24 Jun 6.0 00:09:15 10° NNW 00:14:17 79° ENE 00:15:38 51° SE visible
24 Jun 7.9 01:54:07 10° WNW 01:56:04 14° W 01:56:04 14° W visible
24 Jun 8.5 21:54:27 10° NNE 21:55:54 11° NE 21:57:24 10° NE visible
24 Jun 6.4 23:35:08 10° NNW 23:40:04 55° NE 23:41:51 38° ESE visible
25 Jun 7.5 01:19:01 10° WNW 01:22:18 21° W 01:22:18 21° W visible
25 Jun 7.0 23:01:06 10° NNW 23:05:48 39° NE 23:08:08 26° ESE visible
26 Jun 7.0 00:44:21 10° NW 00:48:35 31° WSW 00:48:35 31° WSW visible
26 Jun 7.5 22:27:08 10° N 22:31:29 29° NE 22:34:29 18° E visible
27 Jun 6.4 00:09:54 10° NW 00:14:47 46° WSW 00:14:56 46° WSW visible
27 Jun 7.8 21:53:17 10° N 21:57:06 21° NE 22:00:53 11° E visible
27 Jun 6.0 23:35:35 10° NW 23:40:39 68° WSW 23:41:21 60° SSW visible
